TANDEM X

Satellite information

Favourite Embed

Satellite Type and Status

PAYLOADIN ORBIT

Key statistics

Satellite TANDEM X at a glance.

Uptime

5655

Days in orbit

Revolutions

≈ 15.2

Per day

Orbit

SSO

Sun Synchronous Orbit

Inclination

97.4

Latest

Satellite identification and parameters

Extended collection of information and parameters for TANDEM X.

Object identification

Identified? True

Debris? False

Object name: TANDEM X

International designator: 2010-030A

Object number (NORAD): 36605

Object ID (CCSDS): 36605

Country: GERMANY (GER)

Current information (Y/N): Y

RCS size: LARGE

Orbital parameters

Period: 94.79 minutes

Inclination: 97.4458 deg

SMA: 6886.539 km

Apoapsis: 509.746 km

Periapsis: 507.061 km

RAAN: 352.9445 deg

Eccentricy: 0.00019496

Argument of periapsis: 84.6239 deg

Mean anomaly: 275.5218 deg

Mean motion: 15.19152153 rev/day

Mean motion (dot): 0.00002473 rev/day2

B* drag term: 0.0001209332 1/REarth

Two-line elements (TLE)

Creation date: Dec. 14, 2025, 3:07 a.m.

Reference frame: TEME

Reference center: EARTH

Epoch: Dec. 13, 2025, 1:47 p.m. UTC

TLE line 0: 0 TANDEM X

TLE line 1: 1 36605U 10030A 25347.57495602 .00002473 00000-0 12093-3 0 9997

TLE line 2: 2 36605 97.4458 352.9445 0001950 84.6239 275.5218 15.19152153858462

Live tracking on map

Real-time ground track for satellite TANDEM X.

In-orbit conjunctions

There are no conjunctions computed for TANDEM X, at the moment. Check back to stay up to date, as we update our databases every day.

Go to all conjunctions

Associated space launch

TANDEM X was lifted into orbit during the mission ‘Dnepr 1 | TanDEM-X’, on board a Dnepr space rocket.

The launch took place on June 21, 2010, 2:14 a.m. from 109/95.

For more information about the launch, click the button.

Launch to space Dnepr 1 | TanDEM-X
Dnepr 1 | TanDEM-X

Agency: N/A

Status: Launch Successful

Launch date: June 21, 2010, 2:14 a.m. UTC

Rocket: Dnepr

Launch pad: 109/95

Location: Baikonur Cosmodrome, Republic of Kazakhstan

...

Latest news about this satellite

There are no fresh news available about this satellite. Check back as we update our databases every day.


Newsletter sign-up

Weekly statistics, charts and insights to help you stay on top of the space industry.